Weather Roundup
Issued by NWS Chicago, IL

Home | Current Version | Previous Version | Text Only | Print | Product List | Glossary Off
Versions: 1 2 3 4 5 6 7 8 9 10 11 12 13 14 15 16 17 18 19 20 21 22 23 24 25 26 27 28 29 30 31 32 33 34 35 36 37 38 39 40 41 42 43 44 45 46 47 48 49 50

000
NZUS59 KLOT 012008
HRRLOT

CHICAGO AREA WEATHER ROUNDUP
NATIONAL WEATHER SERVICE CHICAGO/ROMEOVILLE IL
200 PM CST WED MAR 01 2017

NOTE: "FAIR" INDICATES FEW OR NO CLOUDS BELOW 12,000 FEET WITH NO
SIGNIFICANT WEATHER AND/OR OBSTRUCTIONS TO VISIBILITY.

* THESE STATIONS ARE NOT UNDER NWS QUALITY CONTROL. THEY ALSO MAY NOT
  REPORT WEATHER SUCH AS PRECIPITATION OR FOG.

ILZ005-006-012>014-019>023-012100-
NORTHEAST ILLINOIS

CITY           SKY/WX    TMP DP  RH WIND       PRES   REMARKS
OHARE          DRIZZLE   40  34  79 W15G23    29.63R
MIDWAY         LGT RAIN  40  34  79 W18G29    29.64R
AURORA         CLOUDY    38  34  85 W31G41    29.67R
LANSING*       CLOUDY    39  36  89 W26G38    29.65R
JOLIET*        CLOUDY    40  35  82 W16G26    29.69R
WAUKEGAN       LGT SNOW  36  32  85 NW12G20   29.62R FOG
DUPAGE AIRPORT LGT RAIN  38  33  82 W23G33    29.65R
WHEELING       LGT RAIN  37  33  85 NW13      29.64R
KANKAKEE*      CLOUDY    40  33  77 W26G40    29.72R
MORRIS*        CLOUDY    38  32  79 W33G43    29.69R
LEWIS AIRPORT* CLOUDY    38  36  93 W25G33    29.68R
NORTHERLY ISL    N/A     40  33  76 NW16        N/A
$$

WIZ051-052-058>065-066-070>072-012100-
SOUTHEAST WISCONSIN

CITY           SKY/WX    TMP DP  RH WIND       PRES   REMARKS
MILWAUKEE      FLURRIES  33  27  78 NW15G21   29.62R WCI  23
KENOSHA*       LGT SNOW  35  29  78 NW14G22   29.62R WCI  26
RACINE*        CLOUDY    35  29  78 NW10      29.63R WCI  27
WAUKESHA       FLURRIES  28  27  93 NW13      29.63R WCI  18
WEST BEND      LGT SNOW  30  28  93 NW9       29.63R VSB 3/4 WCI  22
$$

INZ001>003-010>013-019-020-012100-
NORTHWEST INDIANA

CITY           SKY/WX    TMP DP  RH WIND       PRES   REMARKS
GARY*          LGT RAIN  41  37  87 W17G32    29.65R
MICHIGAN CITY* NOT AVBL
RENSSELAER*    NOT AVBL
VALPARAISO     CLOUDY    41  37  86 W24G37    29.64
$$

LMZ740>746-012100-
SOUTHERN LAKE MICHIGAN

STATION/POSITION TIME  SKY/WX   TEMP WIND        PRES    VSBY
                                AIR  DIR/SP/G
                 (UTC)          (F)  (DEG/KT/KT) (MB)    (MI)
HARRISON CRIB    1940            41  280/ 18/ 23   N/A
BURNHAM HARBOR   2000            40  250/ 11/ 20   N/A
CALUMET HARBOR   1948            39  250/ 10/ 18 1003.1R
BURNS HARBOR     1940            40  280/ 18/ 22 1003.4R
MICHIGAN CITY    1940            37  250/ 10/ 12   N/A
$$

ABBREVIATIONS USED IN REMARKS
   TC - TEMPERATURE IN CELSIUS
  WCI - WIND CHILL INDEX
   HX - HEAT INDEX
  VSB - VISIBILITY
$$



USA.gov is the U.S. government's official web portal to all federal, state and local government web resources and services.